{"data":{"norad_id":44542,"epoch":"2026-05-24T01:54:31.218336Z","epoch_age_seconds":150987,"freshness":"FRESH","line1":"1 44542U 19061A   26144.07952799  .00000048  00000+0  00000+0 0  9991","line2":"2 44542  54.3948 183.5409 0008197   0.7769 359.2907  1.86229030 45340","mean_motion":1.8622903,"eccentricity":0.0008197,"inclination_deg":54.3948,"raan_deg":183.5409,"arg_perigee_deg":0.7769,"mean_anomaly_deg":359.2907,"bstar":0,"rev_number":4534,"period_min":773.24142213488,"perigee_km":21505.373500821,"apogee_km":21551.123228988,"semimajor_km":27906.385364905,"source":"CELESTRAK","updated_at":"2026-05-25T13:38:24.222038Z"}}